QPF
0.01 0.00 0.00 0.00 0.00 0.01 0.02 0.03 0.04 0.04 0.01 0.01 0.01 0.02 0.03 0.02 0.04 0.04 0.03 0.03 0.03 0.04 0.03 0.01 0.01 0.02 0.02 0.02 0.02 0.04 0.03 0.01 0.01 0.01 0.01 0.01 0.01 0.00 0.01 0.00 0.01 0.01 0.01
0.00 0.00 0.00 0.00 0.00 0.00 0.02 0.03 0.04 0.04 0.02 0.01 0.01 0.01 0.02 0.02 0.02 0.02 0.02 0.02 0.02 0.02 0.02 0.01 0.01 0.01 0.02 0.02 0.02 0.02 0.02 0.01 0.01 0.01 0.02 0.02 0.02 0.02 0.01 0.01 0.01 0.01 0.00
0.00 0.00 0.00 0.00 0.00 0.00 0.01 0.03 0.04 0.04 0.04 0.03 0.01 0.02 0.02 0.01 0.01 0.01 0.02 0.02 0.02 0.02 0.02 0.02 0.02 0.02 0.02 0.02 0.02 0.01 0.01 0.02 0.02 0.01 0.01 0.02 0.02 0.02 0.02 0.01 0.01 0.00 0.00
0.01 0.01 0.00 0.00 0.00 0.00 0.01 0.02 0.05 0.06 0.06 0.03 0.01 0.01 0.01 0.01 0.01 0.01 0.01 0.01 0.01 0.02 0.02 0.02 0.02 0.02 0.03 0.04 0.03 0.01 0.02 0.03 0.03 0.02 0.01 0.01 0.01 0.01 0.01 0.01 0.01 0.01 0.00
0.01 0.02 0.01 0.00 0.00 0.00 0.01 0.02 0.04 0.07 0.07 0.04 0.02 0.03 0.03 0.02 0.02 0.01 0.01 0.01 0.01 0.01 0.03 0.04 0.03 0.02 0.03 0.04 0.03 0.02 0.02 0.03 0.04 0.04 0.03 0.03 0.01 0.01 0.01 0.01 0.01 0.01 0.00
0.01 0.01 0.02 0.01 0.01 0.01 0.01 0.02 0.02 0.05 0.08 0.07 0.03 0.02 0.03 0.04 0.03 0.02 0.01 0.02 0.02 0.02 0.02 0.02 0.03 0.02 0.02 0.02 0.02 0.03 0.02 0.02 0.01 0.02 0.02 0.02 0.02 0.01 0.01 0.01 0.01 0.01 0.01
0.00 0.01 0.01 0.02 0.02 0.02 0.02 0.01 0.01 0.02 0.05 0.08 0.05 0.02 0.02 0.04 0.04 0.03 0.02 0.03 0.01 0.02 0.02 0.01 0.02 0.02 0.01 0.01 0.02 0.02 0.02 0.02 0.02 0.01 0.01 0.01 0.00 0.01 0.01 0.01 0.01 0.01 0.01
0.01 0.00 0.01 0.02 0.03 0.03 0.04 0.03 0.01 0.01 0.02 0.03 0.04 0.03 0.02 0.04 0.04 0.03 0.02 0.02 0.01 0.01 0.01 0.01 0.01 0.01 0.01 0.01 0.02 0.03 0.02 0.02 0.02 0.02 0.02 0.01 0.01 0.01 0.01 0.01 0.01 0.01 0.01
0.00 0.00 0.01 0.01 0.01 0.03 0.04 0.05 0.04 0.01 0.01 0.02 0.03 0.03 0.04 0.04 0.05 0.04 0.03 0.01 0.01 0.01 0.01 0.02 0.02 0.02 0.01 0.01 0.01 0.01 0.01 0.01 0.01 0.01 0.02 0.02 0.01 0.01 0.01 0.01 0.01 0.01 0.01
0.00 0.00 0.00 0.01 0.01 0.02 0.02 0.03 0.03 0.02 0.01 0.02 0.03 0.02 0.04 0.04 0.04 0.04 0.02 0.02 0.01 0.01 0.01 0.01 0.02 0.01 0.01 0.01 0.01 0.01 0.00 0.00 0.01 0.01 0.01 0.02 0.02 0.02 0.01 0.01 0.01 0.02 0.02
0.00 0.00 0.00 0.01 0.01 0.01 0.01 0.02 0.02 0.02 0.02 0.02 0.03 0.02 0.02 0.03 0.03 0.03 0.02 0.01 0.01 0.01 0.01 0.01 0.01 0.02 0.02 0.01 0.02 0.01 0.01 0.01 0.01 0.01 0.02 0.02 0.02 0.01 0.01 0.01 0.01 0.02 0.02
0.00 0.00 0.00 0.00 0.01 0.01 0.01 0.01 0.01 0.02 0.02 0.02 0.04 0.03 0.02 0.03 0.03 0.02 0.01 0.01 0.01 0.01 0.01 0.02 0.01 0.02 0.02 0.02 0.02 0.02 0.02 0.02 0.02 0.02 0.02 0.01 0.01 0.02 0.02 0.02 0.01 0.01 0.02
0.00 0.00 0.01 0.01 0.01 0.01 0.01 0.02 0.02 0.02 0.02 0.02 0.03 0.03 0.03 0.03 0.03 0.02 0.01 0.01 0.01 0.01 0.01 0.02 0.02 0.02 0.02 0.02 0.02 0.02 0.04 0.04 0.03 0.02 0.02 0.02 0.02 0.01 0.02 0.03 0.03 0.03 0.02
0.02 0.02 0.02 0.01 0.01 0.01 0.01 0.01 0.03 0.03 0.02 0.03 0.03 0.03 0.03 0.04 0.03 0.02 0.01 0.01 0.01 0.01 0.01 0.01 0.02 0.02 0.02 0.02 0.02 0.02 0.03 0.04 0.03 0.02 0.01 0.02 0.02 0.03 0.03 0.02 0.02 0.03 0.04
0.03 0.02 0.01 0.01 0.01 0.01 0.01 0.01 0.01 0.03 0.04 0.03 0.04 0.04 0.04 0.04 0.03 0.02 0.01 0.01 0.01 0.01 0.01 0.01 0.01 0.02 0.02 0.02 0.01 0.02 0.02 0.03 0.03 0.02 0.02 0.02 0.02 0.02 0.03 0.03 0.02 0.02 0.03
0.02 0.02 0.01 0.01 0.01 0.01 0.01 0.01 0.01 0.02 0.05 0.04 0.04 0.04 0.04 0.04 0.02 0.01 0.01 0.01 0.01 0.01 0.01 0.01 0.01 0.01 0.01 0.02 0.02 0.01 0.01 0.02 0.03 0.03 0.02 0.01 0.01 0.02 0.03 0.03 0.02 0.02 0.03
0.02 0.02 0.01 0.01 0.01 0.01 0.01 0.01 0.01 0.01 0.03 0.05 0.05 0.05 0.04 0.04 0.02 0.01 0.01 0.01 0.00 0.00 0.01 0.01 0.01 0.01 0.01 0.01 0.02 0.02 0.01 0.02 0.02 0.02 0.02 0.01 0.01 0.01 0.01 0.01 0.02 0.02 0.02
0.01 0.01 0.01 0.01 0.01 0.01 0.01 0.00 0.00 0.01 0.01 0.04 0.06 0.06 0.04 0.03 0.02 0.02 0.01 0.01 0.00 0.00 0.01 0.01 0.02 0.01 0.01 0.01 0.01 0.02 0.03 0.02 0.01 0.02 0.02 0.02 0.01 0.01 0.01 0.01 0.01 0.02 0.02
0.01 0.01 0.01 0.01 0.01 0.01 0.01 0.00 0.01 0.01 0.01 0.02 0.05 0.06 0.04 0.03 0.02 0.02 0.02 0.01 0.00 0.00 0.01 0.01 0.02 0.02 0.02 0.01 0.02 0.03 0.03 0.03 0.02 0.02 0.03 0.02 0.02 0.01 0.01 0.01 0.01 0.01 0.02
0.00 0.01 0.01 0.01 0.02 0.01 0.01 0.01 0.01 0.01 0.01 0.01 0.02 0.04 0.03 0.02 0.02 0.02 0.03 0.03 0.02 0.01 0.01 0.01 0.01 0.01 0.02 0.02 0.03 0.03 0.03 0.03 0.04 0.02 0.03 0.04 0.02 0.02 0.02 0.02 0.02 0.02 0.02
0.00 0.00 0.01 0.01 0.01 0.01 0.01 0.01 0.01 0.01 0.01 0.02 0.02 0.02 0.02 0.01 0.01 0.01 0.02 0.04 0.04 0.04 0.04 0.02 0.01 0.01 0.01 0.02 0.03 0.04 0.03 0.02 0.03 0.03 0.02 0.03 0.03 0.02 0.02 0.03 0.03 0.02 0.03
0.00 0.00 0.00 0.01 0.01 0.01 0.01 0.01 0.01 0.01 0.01 0.02 0.03 0.03 0.02 0.01 0.01 0.01 0.01 0.03 0.04 0.06 0.07 0.07 0.05 0.03 0.02 0.02 0.03 0.03 0.03 0.02 0.02 0.03 0.03 0.03 0.03 0.02 0.02 0.02 0.02 0.03 0.04
0.00 0.00 0.00 0.01 0.01 0.01 0.01 0.01 0.01 0.01 0.01 0.02 0.04 0.03 0.03 0.01 0.01 0.01 0.01 0.02 0.03 0.04 0.06 0.07 0.07 0.06 0.04 0.03 0.03 0.03 0.03 0.03 0.02 0.02 0.04 0.04 0.04 0.03 0.02 0.02 0.02 0.03 0.04
0.00 0.00 0.01 0.01 0.01 0.01 0.01 0.01 0.01 0.01 0.01 0.02 0.04 0.04 0.03 0.02 0.01 0.01 0.01 0.01 0.02 0.03 0.04 0.05 0.06 0.05 0.05 0.04 0.04 0.02 0.02 0.02 0.02 0.03 0.04 0.03 0.03 0.04 0.03 0.03 0.03 0.04 0.05
0.00 0.00 0.01 0.01 0.01 0.01 0.01 0.01 0.01 0.01 0.02 0.03 0.03 0.05 0.04 0.03 0.02 0.01 0.01 0.01 0.01 0.02 0.03 0.03 0.03 0.04 0.04 0.04 0.03 0.02 0.01 0.01 0.02 0.03 0.03 0.03 0.04 0.05 0.07 0.07 0.06 0.05 0.06
0.00 0.00 0.01 0.01 0.01 0.01 0.01 0.01 0.01 0.01 0.02 0.02 0.04 0.04 0.05 0.04 0.04 0.03 0.02 0.01 0.02 0.02 0.02 0.02 0.03 0.03 0.04 0.04 0.03 0.02 0.02 0.02 0.02 0.02 0.03 0.03 0.03 0.04 0.06 0.08 0.09 0.08 0.08
MSLP
1010.51 1010.78 1010.99 1011.14 1011.22 1011.28 1011.34 1011.46 1011.66 1011.95 1012.33 1012.75 1013.19 1013.59 1013.92 1014.15 1014.26 1014.27 1014.20 1014.09 1013.97 1013.86 1013.79 1013.74 1013.72 1013.70 1013.67 1013.60 1013.51 1013.37 1013.21 1013.05 1012.91 1012.81 1012.77 1012.78 1012.86 1012.98 1013.12 1013.27 1013.41 1013.52 1013.60
1010.30 1010.71 1011.05 1011.27 1011.40 1011.45 1011.48 1011.55 1011.71 1011.97 1012.35 1012.81 1013.31 1013.79 1014.20 1014.50 1014.67 1014.72 1014.67 1014.56 1014.44 1014.33 1014.27 1014.25 1014.28 1014.32 1014.34 1014.34 1014.29 1014.19 1014.06 1013.91 1013.77 1013.66 1013.60 1013.60 1013.64 1013.72 1013.80 1013.88 1013.94 1013.97 1013.99
1009.94 1010.50 1010.97 1011.30 1011.48 1011.56 1011.57 1011.60 1011.71 1011.93 1012.30 1012.77 1013.32 1013.86 1014.35 1014.72 1014.96 1015.06 1015.04 1014.96 1014.85 1014.76 1014.72 1014.73 1014.79 1014.88 1014.97 1015.02 1015.02 1014.96 1014.86 1014.73 1014.60 1014.50 1014.44 1014.42 1014.43 1014.46 1014.49 1014.49 1014.47 1014.41 1014.34
1009.42 1010.12 1010.72 1011.17 1011.45 1011.57 1011.59 1011.59 1011.67 1011.86 1012.21 1012.69 1013.26 1013.85 1014.41 1014.85 1015.16 1015.32 1015.36 1015.31 1015.23 1015.16 1015.14 1015.18 1015.27 1015.40 1015.52 1015.62 1015.66 1015.64 1015.58 1015.48 1015.38 1015.29 1015.24 1015.22 1015.21 1015.21 1015.18 1015.11 1014.99 1014.84 1014.67
1008.79 1009.59 1010.32 1010.90 1011.27 1011.46 1011.52 1011.53 1011.60 1011.78 1012.10 1012.59 1013.17 1013.81 1014.42 1014.93 1015.30 1015.53 1015.62 1015.62 1015.57 1015.53 1015.53 1015.59 1015.71 1015.85 1016.01 1016.13 1016.20 1016.22 1016.18 1016.12 1016.06 1016.00 1015.97 1015.96 1015.95 1015.92 1015.86 1015.73 1015.54 1015.30 1015.04
1008.10 1008.98 1009.80 1010.48 1010.95 1011.23 1011.35 1011.41 1011.48 1011.67 1012.00 1012.48 1013.09 1013.75 1014.40 1014.97 1015.40 1015.68 1015.84 1015.88 1015.87 1015.86 1015.89 1015.96 1016.09 1016.24 1016.41 1016.54 1016.64 1016.67 1016.67 1016.65 1016.61 1016.60 1016.60 1016.61 1016.62 1016.59 1016.51 1016.35 1016.11 1015.80 1015.46
1007.45 1008.33 1009.21 1009.96 1010.53 1010.89 1011.09 1011.21 1011.33 1011.54 1011.88 1012.37 1012.99 1013.67 1014.34 1014.95 1015.43 1015.77 1015.97 1016.08 1016.11 1016.14 1016.18 1016.27 1016.41 1016.57 1016.73 1016.87 1016.97 1017.02 1017.04 1017.04 1017.04 1017.05 1017.09 1017.14 1017.18 1017.18 1017.10 1016.93 1016.67 1016.32 1015.92
1006.88 1007.72 1008.60 1009.39 1010.02 1010.46 1010.74 1010.93 1011.11 1011.36 1011.73 1012.24 1012.86 1013.55 1014.24 1014.87 1015.39 1015.77 1016.03 1016.18 1016.27 1016.33 1016.41 1016.53 1016.67 1016.83 1016.99 1017.12 1017.22 1017.27 1017.29 1017.31 1017.33 1017.38 1017.45 1017.54 1017.61 1017.65 1017.60 1017.45 1017.19 1016.84 1016.41
1006.43 1007.18 1008.01 1008.79 1009.45 1009.94 1010.30 1010.56 1010.81 1011.12 1011.53 1012.05 1012.68 1013.38 1014.07 1014.72 1015.26 1015.68 1015.98 1016.19 1016.34 1016.45 1016.58 1016.72 1016.89 1017.06 1017.21 1017.34 1017.42 1017.47 1017.48 1017.49 1017.52 1017.58 1017.67 1017.79 1017.91 1017.98 1017.98 1017.87 1017.64 1017.30 1016.88
1006.12 1006.74 1007.47 1008.20 1008.84 1009.36 1009.77 1010.11 1010.42 1010.79 1011.24 1011.80 1012.45 1013.14 1013.84 1014.50 1015.06 1015.52 1015.86 1016.13 1016.34 1016.52 1016.70 1016.89 1017.08 1017.27 1017.43 1017.55 1017.62 1017.64 1017.64 1017.62 1017.64 1017.70 1017.80 1017.93 1018.07 1018.18 1018.22 1018.16 1017.99 1017.69 1017.29
1005.92 1006.39 1007.00 1007.64 1008.23 1008.74 1009.18 1009.56 1009.95 1010.38 1010.89 1011.48 1012.15 1012.86 1013.57 1014.23 1014.82 1015.30 1015.70 1016.03 1016.30 1016.55 1016.80 1017.05 1017.29 1017.50 1017.67 1017.79 1017.84 1017.84 1017.80 1017.76 1017.74 1017.78 1017.86 1017.99 1018.14 1018.28 1018.36 1018.34 1018.22 1017.98 1017.63
1005.81 1006.14 1006.60 1007.12 1007.63 1008.11 1008.55 1008.97 1009.41 1009.91 1010.47 1011.12 1011.83 1012.56 1013.28 1013.96 1014.57 1015.09 1015.54 1015.93 1016.28 1016.60 1016.92 1017.23 1017.52 1017.77 1017.96 1018.08 1018.11 1018.09 1018.02 1017.93 1017.88 1017.87 1017.92 1018.03 1018.17 1018.32 1018.41 1018.44 1018.36 1018.17 1017.87
1005.78 1005.97 1006.29 1006.68 1007.09 1007.51 1007.92 1008.37 1008.86 1009.41 1010.05 1010.75 1011.50 1012.28 1013.03 1013.74 1014.38 1014.94 1015.43 1015.88 1016.29 1016.69 1017.08 1017.45 1017.79 1018.07 1018.28 1018.40 1018.43 1018.38 1018.28 1018.16 1018.07 1018.02 1018.03 1018.10 1018.22 1018.35 1018.45 1018.49 1018.44 1018.28 1018.03
1005.83 1005.91 1006.09 1006.34 1006.64 1006.98 1007.37 1007.81 1008.34 1008.95 1009.65 1010.41 1011.23 1012.05 1012.84 1013.59 1014.26 1014.86 1015.40 1015.90 1016.36 1016.82 1017.26 1017.68 1018.07 1018.39 1018.62 1018.75 1018.78 1018.72 1018.60 1018.45 1018.32 1018.23 1018.20 1018.23 1018.32 1018.42 1018.50 1018.53 1018.49 1018.35 1018.13
1005.98 1005.97 1006.03 1006.16 1006.34 1006.59 1006.92 1007.36 1007.90 1008.56 1009.32 1010.15 1011.02 1011.90 1012.74 1013.52 1014.23 1014.87 1015.44 1015.98 1016.48 1016.98 1017.46 1017.92 1018.34 1018.68 1018.93 1019.08 1019.11 1019.06 1018.93 1018.77 1018.62 1018.51 1018.45 1018.45 1018.49 1018.55 1018.61 1018.61 1018.56 1018.42 1018.20
1006.26 1006.18 1006.14 1006.14 1006.21 1006.36 1006.64 1007.04 1007.60 1008.28 1009.09 1009.98 1010.91 1011.83 1012.72 1013.54 1014.28 1014.94 1015.54 1016.10 1016.63 1017.15 1017.65 1018.12 1018.55 1018.91 1019.18 1019.34 1019.40 1019.36 1019.24 1019.10 1018.95 1018.83 1018.75 1018.72 1018.73 1018.76 1018.78 1018.75 1018.66 1018.49 1018.26
1006.67 1006.54 1006.41 1006.30 1006.27 1006.33 1006.53 1006.90 1007.44 1008.14 1008.97 1009.90 1010.87 1011.84 1012.76 1013.61 1014.38 1015.06 1015.67 1016.23 1016.77 1017.29 1017.79 1018.27 1018.70 1019.07 1019.34 1019.53 1019.61 1019.59 1019.51 1019.39 1019.26 1019.15 1019.08 1019.04 1019.03 1019.02 1019.00 1018.93 1018.80 1018.60 1018.33
1007.20 1007.03 1006.83 1006.64 1006.50 1006.48 1006.61 1006.93 1007.44 1008.14 1008.97 1009.92 1010.91 1011.91 1012.85 1013.72 1014.49 1015.18 1015.80 1016.36 1016.88 1017.39 1017.88 1018.34 1018.77 1019.14 1019.42 1019.62 1019.73 1019.75 1019.71 1019.63 1019.53 1019.45 1019.39 1019.35 1019.33 1019.30 1019.24 1019.13 1018.96 1018.72 1018.42
1007.80 1007.61 1007.35 1007.09 1006.88 1006.78 1006.85 1007.11 1007.59 1008.26 1009.09 1010.03 1011.02 1012.02 1012.97 1013.84 1014.62 1015.30 1015.91 1016.46 1016.97 1017.46 1017.92 1018.37 1018.79 1019.15 1019.45 1019.66 1019.79 1019.85 1019.85 1019.81 1019.76 1019.70 1019.66 1019.64 1019.61 1019.56 1019.48 1019.34 1019.14 1018.86 1018.53
1008.42 1008.21 1007.91 1007.60 1007.34 1007.18 1007.20 1007.42 1007.85 1008.49 1009.29 1010.22 1011.19 1012.18 1013.12 1013.98 1014.75 1015.42 1016.02 1016.55 1017.04 1017.51 1017.96 1018.39 1018.79 1019.15 1019.45 1019.67 1019.83 1019.91 1019.95 1019.94 1019.92 1019.90 1019.88 1019.86 1019.83 1019.78 1019.68 1019.53 1019.30 1019.01 1018.66
1008.99 1008.76 1008.45 1008.12 1007.83 1007.65 1007.63 1007.82 1008.22 1008.83 1009.60 1010.48 1011.43 1012.39 1013.31 1014.15 1014.90 1015.56 1016.14 1016.66 1017.14 1017.59 1018.03 1018.44 1018.83 1019.18 1019.47 1019.71 1019.87 1019.98 1020.03 1020.05 1020.05 1020.04 1020.03 1020.02 1020.00 1019.95 1019.84 1019.68 1019.46 1019.16 1018.81
1009.45 1009.23 1008.92 1008.59 1008.31 1008.13 1008.11 1008.29 1008.67 1009.25 1009.99 1010.84 1011.76 1012.68 1013.56 1014.38 1015.10 1015.74 1016.31 1016.82 1017.28 1017.72 1018.15 1018.55 1018.92 1019.27 1019.55 1019.79 1019.96 1020.07 1020.13 1020.15 1020.16 1020.15 1020.14 1020.13 1020.10 1020.06 1019.96 1019.81 1019.60 1019.32 1018.98
1009.79 1009.59 1009.31 1009.01 1008.76 1008.62 1008.62 1008.81 1009.20 1009.77 1010.48 1011.30 1012.17 1013.05 1013.90 1014.68 1015.38 1016.00 1016.54 1017.04 1017.49 1017.92 1018.33 1018.72 1019.09 1019.42 1019.70 1019.92 1020.09 1020.19 1020.24 1020.26 1020.25 1020.24 1020.22 1020.20 1020.17 1020.13 1020.05 1019.92 1019.73 1019.48 1019.18
1010.03 1009.85 1009.62 1009.38 1009.19 1009.11 1009.16 1009.38 1009.79 1010.35 1011.05 1011.84 1012.67 1013.52 1014.32 1015.06 1015.73 1016.32 1016.85 1017.32 1017.76 1018.18 1018.58 1018.96 1019.31 1019.62 1019.89 1020.10 1020.25 1020.34 1020.38 1020.37 1020.35 1020.32 1020.28 1020.26 1020.23 1020.19 1020.13 1020.03 1019.87 1019.67 1019.41
1010.22 1010.07 1009.90 1009.73 1009.62 1009.60 1009.72 1009.99 1010.42 1011.00 1011.68 1012.45 1013.25 1014.04 1014.81 1015.51 1016.14 1016.70 1017.20 1017.65 1018.07 1018.47 1018.85 1019.21 1019.54 1019.84 1020.10 1020.29 1020.42 1020.49 1020.51 1020.49 1020.45 1020.40 1020.35 1020.31 1020.28 1020.26 1020.21 1020.14 1020.03 1019.87 1019.66
1010.41 1010.31 1010.19 1010.10 1010.07 1010.14 1010.32 1010.64 1011.10 1011.68 1012.35 1013.09 1013.85 1014.61 1015.33 1015.98 1016.58 1017.10 1017.57 1017.99 1018.38 1018.75 1019.11 1019.45 1019.76 1020.04 1020.27 1020.45 1020.56 1020.61 1020.62 1020.58 1020.53 1020.47 1020.41 1020.37 1020.34 1020.33 1020.31 1020.27 1020.20 1020.09 1019.93
Thickness
5744 5747 5746 5745 5743 5742 5740 5737 5735 5733 5731 5728 5725 5721 5719 5720 5720 5720 5719 5718 5717 5715 5714 5713 5711 5710 5708 5706 5705 5703 5701 5700 5701 5697 5695 5697 5699 5698 5697 5696 5694 5693 5693
5740 5740 5740 5739 5737 5735 5734 5733 5731 5729 5727 5724 5723 5720 5718 5717 5717 5716 5715 5714 5713 5713 5712 5709 5708 5706 5704 5703 5701 5699 5696 5696 5697 5692 5687 5683 5685 5689 5693 5691 5690 5689 5689
5734 5734 5733 5732 5731 5730 5729 5729 5727 5725 5723 5721 5719 5717 5715 5713 5711 5710 5710 5710 5710 5709 5708 5707 5705 5704 5701 5699 5697 5696 5693 5689 5691 5691 5685 5678 5674 5678 5683 5685 5686 5685 5684
5731 5729 5729 5727 5726 5726 5726 5725 5723 5721 5719 5717 5714 5710 5706 5704 5705 5706 5706 5707 5706 5705 5704 5703 5702 5700 5698 5696 5695 5694 5691 5687 5684 5685 5685 5683 5680 5673 5671 5676 5679 5680 5680
5727 5725 5724 5724 5724 5722 5721 5719 5718 5716 5714 5713 5710 5707 5704 5704 5704 5704 5703 5702 5702 5701 5700 5699 5698 5697 5695 5693 5692 5690 5688 5685 5682 5680 5679 5678 5677 5676 5669 5665 5669 5672 5675
5723 5722 5721 5720 5719 5718 5716 5714 5712 5711 5710 5708 5706 5704 5701 5700 5698 5697 5697 5696 5696 5697 5696 5695 5694 5693 5691 5690 5688 5685 5683 5681 5680 5678 5676 5673 5670 5668 5667 5663 5663 5663 5667
5718 5716 5714 5713 5712 5711 5710 5709 5707 5705 5705 5703 5702 5700 5699 5697 5694 5693 5693 5691 5691 5691 5691 5691 5689 5688 5687 5686 5684 5681 5679 5677 5675 5673 5672 5671 5669 5669 5666 5661 5659 5659 5662
5713 5712 5710 5708 5707 5706 5705 5704 5702 5699 5699 5697 5696 5696 5695 5693 5691 5691 5690 5688 5687 5687 5688 5687 5685 5683 5682 5681 5679 5677 5674 5673 5671 5669 5668 5666 5665 5665 5663 5659 5655 5651 5653
5707 5706 5706 5704 5703 5702 5700 5699 5697 5695 5693 5692 5691 5691 5689 5688 5687 5686 5686 5685 5684 5684 5683 5682 5681 5679 5677 5676 5674 5671 5669 5667 5665 5664 5663 5661 5660 5660 5659 5657 5654 5648 5643
5701 5700 5700 5699 5698 5697 5696 5695 5693 5690 5689 5687 5686 5685 5683 5683 5682 5681 5679 5679 5678 5678 5677 5676 5675 5673 5672 5670 5668 5665 5663 5661 5659 5658 5656 5655 5654 5654 5653 5651 5650 5648 5643
5695 5694 5693 5693 5693 5692 5690 5688 5686 5684 5682 5681 5680 5678 5677 5676 5676 5675 5674 5673 5672 5671 5670 5669 5669 5667 5665 5663 5661 5658 5656 5654 5653 5652 5650 5649 5648 5647 5646 5645 5644 5643 5641
5689 5688 5687 5686 5685 5684 5683 5680 5679 5677 5676 5675 5674 5672 5671 5670 5669 5668 5667 5666 5665 5664 5663 5662 5661 5659 5658 5656 5653 5651 5649 5647 5645 5644 5643 5642 5642 5640 5639 5637 5637 5636 5637
5682 5681 5680 5678 5677 5677 5675 5673 5671 5670 5669 5668 5666 5664 5663 5663 5662 5661 5660 5660 5658 5657 5656 5655 5653 5652 5650 5649 5646 5643 5642 5641 5639 5638 5637 5635 5634 5632 5631 5630 5629 5629 5631
5675 5673 5671 5671 5670 5669 5668 5666 5664 5663 5661 5659 5658 5656 5655 5655 5654 5653 5652 5651 5651 5649 5648 5647 5645 5644 5642 5641 5639 5636 5634 5633 5632 5632 5631 5629 5627 5625 5623 5623 5622 5622 5621
5668 5666 5664 5663 5662 5661 5660 5658 5656 5655 5653 5650 5649 5648 5648 5648 5647 5645 5644 5643 5642 5641 5640 5639 5637 5636 5634 5633 5630 5628 5626 5625 5624 5623 5623 5622 5621 5620 5618 5617 5615 5614 5613
5661 5659 5658 5656 5655 5654 5652 5650 5649 5648 5646 5643 5641 5640 5640 5639 5639 5637 5636 5634 5633 5632 5631 5630 5628 5627 5626 5624 5622 5620 5618 5616 5615 5614 5614 5615 5614 5613 5612 5611 5610 5609 5607
5653 5651 5650 5649 5648 5646 5645 5642 5641 5640 5637 5635 5633 5632 5631 5630 5629 5629 5627 5625 5624 5623 5622 5621 5619 5617 5616 5615 5613 5611 5609 5607 5606 5606 5605 5607 5607 5606 5604 5603 5603 5602 5602
5645 5644 5642 5641 5640 5639 5637 5636 5634 5631 5629 5627 5625 5624 5623 5621 5620 5619 5617 5616 5615 5613 5612 5612 5610 5608 5607 5606 5604 5602 5600 5599 5599 5598 5598 5597 5598 5598 5597 5595 5594 5593 5593
5638 5636 5635 5633 5631 5629 5628 5626 5624 5622 5619 5617 5616 5615 5613 5612 5610 5609 5608 5607 5605 5604 5603 5602 5601 5599 5597 5597 5595 5593 5591 5590 5590 5591 5590 5590 5589 5590 5589 5587 5585 5585 5585
5631 5628 5626 5624 5622 5620 5619 5616 5613 5611 5609 5608 5607 5606 5605 5603 5601 5600 5599 5597 5596 5595 5594 5592 5591 5589 5587 5586 5585 5583 5582 5580 5581 5582 5582 5581 5581 5580 5579 5577 5576 5576 5577
5621 5619 5617 5614 5612 5611 5609 5606 5604 5601 5601 5600 5598 5597 5595 5593 5592 5590 5589 5587 5586 5584 5583 5582 5580 5579 5577 5576 5575 5574 5572 5571 5571 5572 5572 5571 5571 5570 5570 5569 5569 5570 5570
5612 5610 5606 5604 5602 5601 5599 5596 5593 5593 5592 5590 5589 5587 5586 5585 5583 5580 5578 5577 5575 5573 5572 5571 5569 5568 5567 5566 5565 5564 5562 5562 5561 5561 5562 5562 5561 5561 5561 5561 5562 5562 5561
5602 5599 5596 5593 5592 5591 5588 5585 5584 5583 5582 5580 5578 5577 5576 5575 5573 5571 5568 5566 5564 5562 5561 5560 5559 5558 5557 5556 5555 5554 5552 5551 5550 5550 5551 5552 5552 5551 5551 5552 5553 5552 5551
5592 5589 5586 5583 5581 5579 5577 5575 5574 5573 5571 5569 5568 5567 5565 5564 5563 5561 5559 5556 5553 5551 5550 5549 5549 5549 5547 5545 5544 5543 5541 5540 5539 5539 5540 5541 5541 5541 5541 5542 5543 5543 5543
5582 5579 5575 5572 5570 5569 5567 5566 5564 5563 5561 5559 5558 5557 5555 5554 5552 5550 5547 5546 5544 5542 5540 5539 5539 5538 5537 5537 5535 5533 5532 5530 5530 5529 5528 5529 5529 5530 5531 5531 5532 5533 5534
5572 5568 5565 5562 5561 5559 5557 5555 5553 5552 5550 5548 5548 5546 5545 5543 5541 5538 5537 5535 5533 5533 5531 5530 5529 5529 5529 5528 5527 5525 5524 5522 5521 5519 5518 5519 5518 5519 5520 5521 5522 5523 5525